Hourly Data Report for September 19, 2016

All times are specified in Local Standard Time (LST). Add 1 hour to adjust for Daylight Saving Time where and when it is observed.

CORAL HARBOUR A
NUNAVUT

64°11'36.000" N
83°21'34.000" W
62.20 m
2301002
71915
YZS

Download Data

Hourly Data (September 2016)
Hourly Data Report for September 19, 2016
Temp Definition
°C
Dew Point Temp Definition
°C
Rel Hum Definition
%
Wind Dir Definition
10's deg

Wind Spd Definition
km/h
Visibility Definition
km
Stn Press Definition
kPa
Hmdx Definition


Wind Chill Definition


Weather Definition


TIME
00:00 Legend Double Dagger 3.7 3.1 96 14 18 24.1 100.28     Rain
01:00 Legend Double Dagger 3.7 3.1 96 14 18 24.1 100.25     Cloudy
02:00 Legend Double Dagger 3.6 3.0 96 12 19 24.1 100.20     LegendNANA
03:00 Legend Double Dagger 3.8 3.1 95 13 20 24.1 100.14     LegendNANA
04:00 Legend Double Dagger 3.6 2.7 94 12 19 24.1 100.08     Cloudy
05:00 Legend Double Dagger 3.3 2.4 94 11 18 24.1 100.02     LegendNANA
06:00 Legend Double Dagger 2.9 2.2 95 10 20 24.1 99.98     LegendNANA
07:00 Legend Double Dagger 3.5 2.6 94 9 21 24.1 99.95     Cloudy
08:00 Legend Double Dagger 4.2 3.2 93 12 21 24.1 99.91     LegendNANA
09:00 Legend Double Dagger 4.7 3.5 92 12 19 24.1 99.88     LegendNANA
10:00 Legend Double Dagger 5.3 3.8 90 13 25 24.1 99.83     Cloudy
11:00 Legend Double Dagger 5.3 4.3 93 12 24 24.1 99.77     LegendNANA
12:00 Legend Double Dagger 5.1 4.7 97 13 20 9.7 99.74     Drizzle,Fog
13:00 Legend Double Dagger 5.2 4.9 98 12 24 1.2 99.70     Drizzle,Fog
14:00 Legend Double Dagger 5.7 5.1 96 11 22 19.3 99.69     Drizzle
15:00 Legend Double Dagger 5.5 5.1 97 11 23 0.4 99.65     Fog
16:00 Legend Double Dagger 5.2 5.1 99 10 22 0.8 99.63     Fog
17:00 Legend Double Dagger 5.2 5.1 99 12 24 0.6 99.62     Fog
18:00 Legend Double Dagger 5.3 5.2 99 12 22 0.2 99.57     Rain,Fog
19:00 Legend Double Dagger 5.3 5.2 99 13 26 0.2 99.55     Rain,Fog
20:00 Legend Double Dagger 5.3 5.2 99 13 23 0.2 99.55     Rain,Fog
21:00 Legend Double Dagger 5.3 5.2 99 13 21 0.2 99.52     Rain,Fog
22:00 Legend Double Dagger 5.1 5.0 99 14 21 0.2 99.47     Rain,Fog
23:00 Legend Double Dagger 5.5 5.4 99 15 16 0.2 99.43     Fog

Notes on Data Quality.

Legend

  • E = Estimated
  • M = Missing
  • NA = Not Available
  • ‡ = Partner data that is not subject to review by the National Climate Archives
Date modified: